www.pogodaiklimat.ru

Погода и климат >> Архив погоды >> Антарктида >> Sky Blue


ПОГОДА в Sky Blue

  • Прогноз погоды в Sky Blue
  • Монитор погоды в Sky Blue
  • Климат города

АРХИВ ПОГОДЫ в Sky Blue

Время (UTC), дата Ветер
(напр.,м/с)
 
Видим.   Явления Облачность Т
(С)
Тd
(С)
f
(%)
Тe
(С)
Тes
(С)
Комфортность P
(гПа)
Po
(гПа)
Тmin
(С)
Tmax
(С)
R
(мм)
R24
(мм)
S
(см)
18 14.11 З 4 н/о н/о -11.8 -14.3 82 -19 -19 961.7 799.2
21 14.11 ЮЗ 2 н/о н/о -9.0 -12.2 78 -13 -13 960.3 799.4
00 15.11 СВ 3 н/о н/о -15.1 -17.9 79 -21 -21 964.3 799.6
03 15.11 В 5 н/о н/о -18.5 -20.9 81 -28 -28 966.0 799.2
06 15.11 СВ 3 н/о н/о -18.2 -20.8 80 -25 -25 965.5 798.9
09 15.11 С 1 н/о н/о -15.0 -17.1 84 -18 -18 962.9 798.5
12 15.11 СЗ 2 н/о н/о -13.0 -14.9 86 -17 -17 961.4 798.3
15 15.11 СЗ 2 н/о н/о -10.4 -12.9 82 -15 -15 959.2 797.8
18 15.11 нст 1 н/о н/о -9.9 -14.5 69 -12 -12 958.8 797.7
21 15.11 В 2 н/о н/о -11.5 -15.4 73 -15 -15 959.7 797.7
00 16.11 СВ 4 н/о н/о -18.3 -21.0 79 -26 -26 964.4 798.0
03 16.11 СВ 5 н/о н/о -20.8 -23.9 76 -31 -31 опасность
обморожения
966.0 797.9
06 16.11 нст 1 н/о н/о -19.1 -21.8 79 -20 -20 965.1 798.1
09 16.11 СВ 3 н/о н/о -17.6 -20.2 80 -25 -25 964.7 798.6
12 16.11 СВ 3 н/о н/о -18.6 -21.9 75 -26 -26 965.8 799.0
15 16.11 СВ 3 н/о н/о -12.9 -18.2 64 -18 -18 962.5 799.3
18 16.11 ЮВ 3 н/о н/о -15.0 -17.7 80 -22 -22 964.4 799.7
21 16.11 Ю 2 н/о н/о -17.6 -20.4 79 -23 -23 966.9 800.4
00 17.11 ЮВ 3 н/о н/о -18.2 -21.0 79 -26 -26 967.5 800.6
03 17.11 ЮВ 3 н/о н/о -18.8 -21.8 77 -26 -26 968.0 800.7
06 17.11 В 4 н/о н/о -18.3 -21.1 79 -26 -26 967.8 800.8
09 17.11 ЮВ 2 н/о н/о -18.2 -21.1 78 -24 -24 968.1 801.1
12 17.11 ЮВ 3 н/о н/о -17.0 -20.2 76 -23 -23 967.1 800.9
15 17.11 Ю 2 н/о н/о -14.7 -18.4 73 -20 -20 965.1 800.5
18 17.11 ЮВ 3 н/о н/о -15.9 -19.6 73 -22 -22 965.5 800.2
21 17.11 ЮВ 2 н/о н/о -15.7 -19.6 72 -21 -21 964.9 799.8
00 18.11 нст 1 н/о н/о -14.8 -19.6 67 -15 -15 963.1 798.8
03 18.11 СВ 3 н/о н/о -25.6 -29.5 70 -34 -34 опасность
обморожения
968.6 797.4
06 18.11 В 2 н/о н/о -24.1 -27.8 71 -31 -31 опасность
обморожения
965.9 796.0
09 18.11 ЮВ 4 н/о н/о -21.8 -25.1 75 -31 -31 опасность
обморожения
962.4 794.4
12 18.11 ЮВ 4 н/о н/о -20.7 -24.0 75 -30 -30 959.1 792.3
15 18.11 В 4 н/о н/о -18.7 -22.0 75 -27 -27 955.4 790.3
18 18.11 В 1 н/о н/о -11.4 -15.7 70 -14 -14 948.5 788.4
21 18.11 ЮВ 2 н/о н/о -15.3 -21.4 60 -20 -20 949.0 786.8
00 19.11 СВ 3 н/о н/о -21.7 -27.0 62 -30 -30 951.7 785.6
03 19.11 СВ 6 н/о н/о -24.2 -29.3 63 -36 -36 опасность
обморожения
951.8 784.3
06 19.11 СВ 6 н/о н/о -25.2 -31.9 53 -37 -37 опасность
обморожения
951.2 783.3
09 19.11 СВ 5 н/о н/о -22.6 -30.3 49 -33 -33 опасность
обморожения
948.9 782.8
12 19.11 С 6 н/о н/о -19.5 -25.7 58 -30 -30 946.1 782.2
15 19.11 С 4 н/о н/о -14.9 -21.0 60 -23 -23 943.3 782.3
18 19.11 С 5 н/о н/о -15.0 -19.7 67 -23 -23 943.6 782.5
21 19.11 С 4 н/о н/о -13.8 -18.3 69 -21 -21 943.4 782.9
00 20.11 С 3 н/о н/о -16.3 -19.7 75 -23 -23 945.2 783.1
03 20.11 СВ 4 н/о н/о -21.7 -25.1 74 -31 -31 опасность
обморожения
948.9 783.3
06 20.11 СВ 5 н/о н/о -24.8 -28.1 74 -36 -36 опасность
обморожения
951.3 783.6
09 20.11 СВ 4 н/о н/о -24.4 -28.1 71 -34 -34 опасность
обморожения
951.9 784.3
12 20.11 СВ 3 н/о н/о -19.3 -22.6 75 -27 -27 948.9 784.6
15 20.11 С 2 н/о н/о -14.7 -19.7 66 -20 -20 946.3 784.9
18 20.11 ЮВ 3 н/о н/о -12.1 -18.2 60 -18 -18 945.3 785.4
21 20.11 ЮВ 3 н/о н/о -13.8 -18.8 66 -20 -20 947.2 786.1
00 21.11 нст 1 н/о н/о -16.9 -22.7 61 -20 -20 949.6 786.5
03 21.11 СВ 6 н/о н/о -22.2 -26.0 71 -33 -33 опасность
обморожения
953.2 786.6
06 21.11 СВ 9 н/о н/о -18.0 -22.4 68 -30 -30 951.4 787.4
09 21.11 СВ 7 н/о н/о -17.7 -22.1 68 -29 -29 953.2 789.0
12 21.11 СВ 9 н/о н/о -14.6 -19.9 64 -26 -26 952.4 790.0

 

Местоположение метеостанции Sky Blue (Антарктида): широта -74.79 долгота -71.49 высота над уровнем моря 1589 м.

В архиве по умолчанию представлена погода в Sky Blue за последнюю неделю. Архивные данные за месяц целиком и за предыдущие месяцы, начиная с января 2011 года, Вы можете получить, выбрав интересующий диапазон дат из раскрывающегося списка и нажав кнопку "Ввод!".


*Определитесь, кто Вы:
робот инопланетянин человек

Внимание! Время в таблицах - всемирное. Для получения местного времени необходимо прибавить поправку, которая в Sky Blue равна 0 ч.

Смотрите также архив погоды в соседних городах и на ближайших метеорологических станциях:

Погода в Limbert Aws (Антарктида) (367 км)
Погода в Fossil Bluff (Антарктида) (398 км)
Погода в Butler Island (Антарктида) (458 км)
Погода в San Martin Base (Антарктида) (758 км)
Погода в Rothera (Антарктида) (813 км)
Погода в Larsen Ice Shelf (Антарктида) (935 км)
Погода в Base Belgrano Ii (Антарктида) (1008 км)
Погода в Vernadsky (Антарктида) (1094 км)
Погода в Palmer Station (Антарктида) (1149 км)
Погода в Byrd (Антарктида) (1249 км)

Пояснения к столбцам:

Ветер - указаны скорость ветра в м/с - средняя за 10 мин, порывы в срок и между сроками (в фигурных скобках) и направление, откуда дует ветер: С - северный, СВ - северо-восточный, В - восточный, ЮВ - юго-восточный, Ю - южный, ЮЗ - юго-западный, З - западный, СЗ - северо-западный.
Видимость - горизонтальная дальность видимости в метрах или километрах. При видимости от 1 до 10 км при отсутствии осадков обычно наблюдается дымка, при ухудшении видимости до 1 км и менее - туман. В сухую погоду видимость может ухудшаться дымом, пылью или мглою.
Явления - указаны атмосферные явления, наблюдавшиеся в срок или в последний час перед сроком; фигурными скобками обозначены явления, наблюдавшиеся между сроками (за 1-3 часа до срока); квадратными скобками обозначены град или гололедные отложения с указанием их диаметра в мм.
Облачность - указаны через наклонную черту общая и нижняя облачность в баллах и высота нижней границы облаков в метрах; квадратными скобками обозначены формы облаков: Ci - перистые, Cs - перисто-слоистые, Cc - перисто-кучевые, Ac - высококучевые, As - высокослоистые, Sc - слоисто-кучевые, Ns - слоисто-дождевые, Cu - кучевые, Cb - кучево-дождевые. Подробнее классификацию облаков см. в Атласе облаков (PDF).
T - Температура воздуха - температура, измеренная на высоте 2 м над землей.
Td - Температура точки росы - температура, при понижении до которой содержащийся в воздухе водяной пар достигнет насыщения.
f - Относительная влажность воздуха - влажноcть воздуха, измеренная на высоте 2 м над землей.
Te - Эффективная температура - температура, которую ощущает одетый по сезону человек в тени. Характеристика душности погоды. При расчете учитывается влияние влажности воздуха и скорости ветра на теплоощущения человека.
Tes - Эффективная температура на солнце - температура, которую ощущает человек, с поправкой на солнечный нагрев. Характеристика знойности погоды. Зависит от высоты солнца над горизонтом, облачности и скорости ветра. Ночью, в пасмурную погоду, а также при ветре 12 м/с и более поправка равна нулю.
P - Атмосферное давление - приведенное к уровню моря атмосферное давление.
Po - Атмосферное давление - измеренное на уровне метеостанции атмосферное давление.
Tmin - Минимальная температура - минимум температуры воздуха на высоте 2 м над землей.
Tmax - Максимальная температура - максимум температуры воздуха на высоте 2 м над землей.
R - Количество осадков - Количество выпавших осадков за период времени, мм. При наведении курсора мыши на число - период времени, за который выпало указанное количество осадков.
R24 - Количество осадков - Количество выпавших осадков за 24 часа, мм.
S - Снежный покров - Высота снежного покрова, см. При наведении курсора мыши на число - состояние снежного покрова и степень покрытия местности в баллах.